SCP
0 0 0 0 0 0 0 0 0 0 0 0 0 0 0 0 0 0 0 0 0 0 0 0 0 0 0 0 0 0 0 0 0 0 0 0 0 0 0 0 0 0 0 0
0 0 0 0 0 0 0 0 0 0 0 0 0 0 0 0 0 0 0 0 0 0 0 0 0 0 0 0 0 0 0 0 0 0 0 0 0 0 0 0 0 0 0 0
0 0 0 0 0 0 0 0 0 0 0 0 0 0 0 0 0 0 0 0 0 0 0 0 0 0 0 0 0 0 0 0 0 0 0 0 0 0 0 0 0 0 0 0
0 0 0 0 0 0 0 0 0 0 0 0 0 0 0 0 0 0 0 0 0 0 0 0 0 0 0 0 0 0 0 0 0 0 0 0 0 0 0 0 0 0 0 0
0 0 0 0 0 0 0 0 0 0 0 0 0 0 0 0 0 0 0 0 0 0 0 0 0 0 0 0 0 0 0 0 0 0 0 0 0 0 0 0 0 0 0 0
0 0 0 0 0 0 0 0 0 0 0 0 0 0 0 0 0 0 0 0 0 0 0 0 0 0 0 0 0 0 0 0 0 0 0 0 0 0 0 0 0 0 0 0
0 0 0 0 0 0 0 0 0 0 0 0 0 0 0 0 0 0 0 0 0 0 0 0 0 0 0 0 0 0 0 0 0 0 0 0 0 0 0 0 0 0 0 0
0 0 0 0 0 0 0 0 0 0 0 0 0 0 0 0 0 0 0 0 0 0 0 0 0 0 0 0 0 0 0 0 0 0 0 0 0 0 0 0 0 0 0 0
0 0 0 0 0 0 0 0 0 0 0 0 0 0 0 0 0 0 0 0 0 0 0 0 0 0 0 0 0 0 0 0 0 0 0 0 0 0 0 0 0 0 0 0
0 0 0 0 0 0 0 0 0 0 0 0 0 0 0 0 0 0 0 0 0 0 0 0 0 0 0 0 0 0 0 0 0 0 0 0 0 0 0 0 0 0 0 0
0 0 0 0 0 0 0 0 0 0 0 0 0 0 0 0 0 0 0 0 0 0 0 0 0 0 0 0 0 0 0 0 0 0 0 0 0 0 0 0 0 0 0 0
0 0 0 0 0 0 0 0 0 0 0 0 0 0 0 0 0 0 0 0 0 0 0 0 0 0 0 0 0 0 0 0 0 0 0 0 0 0 0 0 0 0 0 0
0 0 0 0 0 0 0 0 0 0 0 0 0 0 0 0 0 0 0 0 0 0 0 0 0 0 0 0 0 0 0 0 0 0 0 0 0 0 0 0 0 0 0 0
0 0 0 0 0 0 0 0 0 0 0 0 0 0 0 0 0 0 0 0 0 0 0 0 0 0 0 0 0 0 0 0 0 0 0 0 0 0 0 0 0 0 0 0
0 0 0 0 0 0 0 0 0 0 0 0 0 0 0 0 0 0 0 0 0 0 0 0 0 0 0 0 0 0 0 0 0 0 0 0 0 0 0 0 0 0 0 0
0 0 0 0 0 0 0 0 0 0 0 0 0 0 0 0 0 0 0 0 0 0 0 0 0 0 0 0 0 0 0 0 0 0 0 0 0 0 0 0 0 0 0 0
0 0 0 0 0 0 0 0 0 0 0 0 0 0 0 0 0 0 0 0 0 0 0 0 0 0 0 0 0 0 0 0 0 0 0 0 0 0 0 0 0 0 0 0
0 0 0 0 0 0 0 0 0 0 0 0 0 0 0 0 0 0 0 0 0 0 0 0 0 0 0 0 0 0 0 0 0 0 0 0 0 0 0 0 0 0 0 0
0 0 0 0 0 0 0 0 0 0 0 0 0 0 0 0 0 0 0 0 0 0 0 0 0 0 0 0 0 0 0 0 0 0 0 0 0 0 0 0 0 0 0 0
0 0 0 0 0 0 0 0 0 0 0 0 0 0 0 0 0 0 0 0 0 0 0 0 0 0 0 0 0 0 0 0 0 0 0 0 0 0 0 0 0 0 0 0
0 0 0 0 0 0 0 0 0 0 0 0 0 0 0 0 0 0 0 0 0 0 0 0 0 0 0 0 0 0 0 0 0 0 0 0 0 0 0 0 0 0 0 0
0 0 0 0 0 0 0 0 0 0 0 0 0 0 0 0 0 0 0 0 0 0 0 0 0 0 0 0 0 0 0 0 0 0 0 0 0 0 0 0 0 0 0 0
0 0 0 0 0 0 0 0 0 0 0 0 0 0 0 0 0 0 0 0 0 0 0 0 0 0 0 0 0 0 0 0 0 0 0 0 0 0 0 0 0 0 0 0
0 0 0 0 0 0 0 0 0 0 -0 -0 0 0 0 0 0 0 0 0 0 0 0 0 0 0 0 0 0 0 0 0 0 0 0 0 0 0 0 0 0 0 0 0
0 0 0 0 0 0 0 0 -0 -0 -0 -0 0 0 0 0 0 0 0 0 0 0 0 0 0 0 0 0 0 0 0 0 0 0 0 0 0 0 0 0 0 0 0 0
0 0 0 0 0 0 0 0 0 -0 -0 0 0 0 0 0 0 0 0 0 0 0 0 0 0 0 0 0 0 0 0 0 0 0 0 0 0 0 0 0 0 0 0 0
Wind_Speed
8 7 6 5 5 6 6 6 5 3 2 3 5 5 5 6 6 6 6 6 8 8 7 7 6 6 5 4 5 6 6 5 4 3 2 2 2 1 2 2 3 2 2 3
7 8 6 5 4 6 8 7 6 3 2 3 5 6 4 6 7 6 6 7 7 7 8 8 7 6 6 5 4 5 5 4 5 3 3 3 3 2 2 2 2 2 2 2
9 3 2 5 6 7 8 6 5 5 4 6 6 6 5 6 6 6 5 5 6 7 8 9 7 6 6 5 5 4 5 5 5 4 3 2 2 1 2 2 1 1 2 2
6 4 4 6 7 8 6 3 5 6 7 5 6 4 3 6 6 6 5 4 5 6 7 7 6 6 5 4 4 4 4 5 5 5 3 3 3 2 3 2 2 2 2 2
5 4 6 7 5 6 6 5 7 8 8 9 8 6 3 5 5 6 6 5 4 5 6 7 6 6 5 5 4 3 4 4 4 4 4 3 2 2 2 3 4 3 2 2
7 5 6 6 5 5 6 7 9 8 6 8 8 5 1 2 3 5 5 5 5 5 6 6 7 6 4 5 4 4 4 4 4 4 4 4 3 3 3 3 3 2 2 2
8 8 6 4 6 5 6 6 3 4 5 5 5 3 2 3 3 3 4 5 5 5 6 5 6 6 5 5 5 4 4 4 4 4 4 4 4 3 3 3 3 3 2 2
7 6 6 5 6 5 6 7 4 4 3 3 3 2 4 5 4 4 4 4 5 5 5 5 5 5 5 5 5 5 5 4 4 3 3 3 4 2 2 3 3 3 2 3
6 2 2 3 4 6 7 6 5 6 7 6 3 2 4 4 5 4 4 3 3 4 4 5 5 5 5 5 4 4 4 4 4 3 3 3 3 3 3 3 3 3 3 3
8 7 4 3 4 7 7 7 5 4 4 4 4 3 2 3 4 3 3 2 2 3 4 4 5 5 4 4 4 3 3 3 3 3 3 2 2 3 3 3 3 3 3 3
7 8 5 4 6 6 6 6 5 4 4 3 4 2 3 4 3 2 2 2 2 4 3 4 4 4 4 5 4 3 3 2 2 2 2 2 1 2 2 2 3 3 3 3
5 6 7 7 5 4 6 6 5 4 5 4 3 1 3 5 4 3 2 2 2 4 4 4 4 4 4 5 4 3 3 3 3 2 1 2 2 2 2 2 2 3 3 3
4 5 7 4 3 3 4 5 7 6 5 5 5 1 2 3 3 2 2 2 3 3 3 4 4 4 3 4 4 3 3 3 2 2 2 2 2 2 2 2 2 2 2 2
4 7 8 8 6 4 7 7 6 7 5 7 6 3 1 2 3 2 3 3 3 3 1 3 4 3 3 3 3 3 3 3 3 2 2 2 2 2 2 2 2 2 2 2
5 8 10 11 10 8 9 9 8 9 9 8 6 4 3 3 2 3 3 3 4 3 1 2 2 2 2 2 2 2 2 2 3 2 3 3 2 2 2 2 2 2 2 2
6 8 10 11 11 11 11 9 10 10 9 9 7 4 3 3 3 3 4 4 4 3 2 2 1 1 2 2 2 2 2 2 2 2 2 2 2 2 2 2 2 2 2 2
6 8 9 10 10 10 10 7 6 5 5 5 4 2 3 3 4 4 4 4 4 5 4 3 2 1 1 1 2 2 2 2 2 2 1 1 1 1 2 2 2 2 2 2
8 8 6 8 9 11 3 3 2 1 1 2 2 3 3 2 1 2 3 4 4 4 4 3 3 3 2 0 0 0 1 2 1 1 1 1 1 1 1 2 3 3 3 3
8 7 6 6 8 8 4 1 1 2 1 1 2 3 3 3 1 2 4 4 4 4 3 3 3 2 2 2 1 0 1 1 1 1 1 1 1 1 1 2 3 3 2 2
7 7 6 6 7 7 1 3 3 2 1 2 3 2 2 3 1 2 4 4 4 5 4 4 3 2 2 2 1 0 1 0 1 1 1 1 2 2 2 2 2 2 2 2
5 6 8 9 9 4 2 2 1 1 2 4 4 3 3 2 2 3 3 4 4 4 4 4 3 3 3 2 1 1 1 1 1 1 1 1 2 2 2 2 1 1 2 2
5 4 6 6 7 3 2 1 2 3 4 3 4 4 4 4 3 3 4 4 3 4 4 4 3 3 2 2 2 2 2 1 1 1 2 1 1 2 1 2 1 1 2 2
4 3 2 2 1 3 3 3 4 4 3 3 4 4 5 5 4 3 2 3 3 3 3 3 3 3 3 3 2 2 2 1 1 1 1 1 2 2 2 2 2 2 2 2
2 2 4 4 2 1 2 3 3 3 3 4 4 4 4 4 5 4 3 2 2 3 3 3 3 3 3 4 3 3 3 2 2 2 2 2 2 2 1 1 2 2 2 2
4 3 5 7 4 1 0 2 2 3 3 3 4 4 4 4 5 5 4 3 1 1 2 2 2 3 3 4 3 4 4 3 2 2 2 2 2 2 2 2 1 2 2 2
6 5 5 5 4 3 2 1 2 2 3 3 4 5 4 4 5 5 4 3 2 2 2 2 2 2 3 4 4 4 4 3 3 2 2 1 1 1 2 1 1 0 1 2
Wind_Direction
217 229 239 243 244 263 283 288 286 268 205 215 243 250 202 187 186 188 179 179 174 174 172 162 155 145 143 141 138 133 140 148 129 122 119 118 115 111 98 97 95 85 78 97
226 229 243 266 282 278 275 273 273 260 218 251 261 259 216 180 184 188 189 184 180 173 167 159 158 154 157 154 149 146 146 148 135 134 136 139 131 134 121 106 106 115 97 92
241 245 238 258 260 263 265 266 284 301 287 254 256 255 221 180 181 179 191 188 179 172 167 159 163 158 156 155 155 154 154 147 137 140 129 121 107 125 115 117 114 131 110 97
249 250 260 260 258 270 274 286 286 279 276 268 248 267 222 168 171 181 182 189 182 167 158 153 154 153 156 154 153 155 156 146 140 138 141 146 157 167 157 149 152 158 129 120
249 242 256 264 269 278 287 291 280 274 272 274 255 247 213 159 177 179 175 185 177 159 151 147 149 149 155 151 147 146 141 137 140 140 147 166 168 161 150 143 150 159 154 158
254 247 254 275 287 278 283 276 270 257 253 261 253 243 190 171 164 159 165 165 157 149 145 145 143 140 144 140 142 145 146 142 139 146 161 182 176 163 155 152 152 159 161 167
235 228 223 239 260 239 247 267 273 247 224 242 247 228 152 127 97 103 131 140 145 146 142 140 143 147 145 144 148 152 151 149 155 173 185 185 177 177 179 170 171 173 170 171
258 228 201 211 251 269 256 261 269 286 291 302 265 214 118 110 102 87 90 104 124 130 135 138 141 141 142 148 152 157 159 161 164 184 195 185 170 175 179 180 175 178 180 178
295 273 165 218 250 266 274 272 280 285 284 278 249 146 132 120 111 98 97 102 125 137 133 139 146 145 143 145 146 155 158 160 165 191 203 190 173 180 180 186 184 176 182 179
298 297 233 211 246 243 265 291 291 271 286 288 281 241 154 132 108 99 111 116 120 135 137 135 140 144 145 145 147 150 154 168 172 186 205 186 184 186 182 187 189 185 183 176
286 282 259 214 230 252 246 256 270 284 276 277 288 346 61 100 86 91 91 90 128 137 138 136 133 143 139 133 141 155 160 154 167 193 199 169 202 193 173 197 191 176 181 183
281 286 279 255 231 242 272 271 271 270 281 279 275 276 68 77 64 57 43 78 85 119 127 128 136 141 139 144 161 172 174 168 173 186 194 184 185 189 193 198 194 177 180 184
319 282 282 265 225 205 262 276 286 284 280 278 273 220 99 91 83 49 52 52 77 94 123 132 132 138 146 153 165 169 176 172 164 164 177 187 189 188 197 202 187 176 175 188
303 272 274 279 297 296 271 266 273 282 278 278 283 271 232 40 39 23 33 32 46 47 74 132 132 137 146 163 174 172 179 174 163 168 198 202 195 196 195 197 192 180 178 183
263 269 275 282 292 294 289 281 271 266 273 279 290 295 339 37 25 358 41 41 42 21 21 89 116 140 158 169 170 168 176 179 170 178 209 218 201 200 207 190 183 177 186 207
262 273 281 279 279 283 283 275 272 268 274 280 280 282 10 35 26 24 33 35 27 22 45 56 95 134 176 176 172 182 183 189 183 195 218 217 207 201 200 184 176 180 196 209
262 269 278 280 285 283 265 265 265 266 286 288 289 326 42 35 13 19 22 24 36 20 15 17 6 340 203 199 196 188 186 178 191 187 193 201 219 211 191 192 190 187 194 198
266 274 275 276 278 265 268 34 9 287 304 344 356 46 41 354 340 41 40 30 22 14 10 0 353 352 339 320 73 142 185 177 178 156 182 218 215 211 193 188 200 201 201 196
247 260 269 269 271 266 254 312 317 274 271 30 358 20 13 335 296 61 41 30 15 4 359 352 350 347 343 348 12 149 232 187 154 149 220 231 206 199 206 205 205 205 208 208
235 246 251 261 267 272 350 46 357 285 230 57 43 22 350 334 313 359 15 15 17 12 4 1 357 354 356 347 359 32 262 269 222 207 215 219 200 194 209 215 210 213 207 205
218 236 240 253 259 265 61 53 341 295 35 37 29 15 11 358 3 359 10 14 20 6 2 2 3 2 351 346 348 302 279 265 265 255 237 214 188 186 198 193 199 205 194 185
241 242 240 246 253 244 93 46 24 47 43 22 15 10 6 7 9 16 11 8 9 3 359 360 359 358 345 337 340 312 284 265 246 233 216 206 196 195 198 176 202 203 190 191
240 267 305 296 340 69 58 51 44 36 21 5 2 5 356 349 346 345 352 353 359 354 346 351 351 345 340 340 331 308 301 287 253 244 221 213 211 202 194 184 191 201 196 198
260 305 285 281 223 130 85 65 51 30 16 2 352 342 334 325 328 329 336 332 344 343 337 342 340 339 340 337 330 325 312 296 276 257 241 221 217 216 200 183 186 194 199 197
302 294 276 271 276 278 3 32 42 24 5 343 331 324 316 315 317 316 314 313 325 326 329 334 326 327 328 328 333 332 327 318 284 266 254 229 213 205 198 187 192 198 202 198
257 259 260 269 284 288 299 3 357 332 320 319 315 310 308 303 306 310 308 320 332 328 323 317 324 328 323 327 331 327 326 324 311 288 273 265 224 201 193 182 174 310 220 213